CW0238 Weather Reports


Display with metric or nautical units.
time (UTC)temp
F
wind
direction
speed
MPH
gust
MPH
rain 1hr
in
rain 24hr
in
rain mn
in
humidity
%
barometer
mb
20260506005632 62 84 0.0 0.0 0.00 0.20 0.20 94 1006.1
20260506005132 62 84 0.0 0.0 0.00 0.20 0.20 94 1006.1
20260506004632 62 84 0.0 0.0 0.00 0.20 0.20 94 1006.2
20260506004130 62 84 0.0 0.0 0.00 0.20 0.20 94 1006.1
20260506003633 62 84 0.0 0.0 0.01 0.20 0.20 94 1006.1
20260506003129 62 84 0.0 0.0 0.01 0.20 0.20 94 1006.1
20260506002901 62 84 0.0 1.0 0.01 0.20 0.20 94 1006.1
20260506002128 62 84 0.0 1.0 0.04 0.20 0.20 94 1006.1
20260506001626 62 84 0.0 0.0 0.06 0.20 0.20 94 1006.2
20260506001126 62 84 0.0 0.0 0.07 0.20 0.20 94 1006.3
20260506000841 62 84 0.0 0.0 0.07 0.20 0.20 94 1006.4
20260506000125 62 84 0.0 0.0 0.07 0.20 0.20 94 1006.3
20260505235621 62 84 0.0 0.0 0.07 0.20 0.20 94 1006.2
20260505235120 63 84 0.0 0.0 0.07 0.20 0.20 94 1006.2
20260505234621 63 84 0.0 0.0 0.07 0.20 0.20 94 1006.3
20260505234120 63 84 0.0 0.0 0.07 0.20 0.20 94 1006.3
20260505233623 64 84 0.0 0.0 0.07 0.19 0.19 94 1006.3
20260505233116 64 84 0.0 0.0 0.08 0.19 0.19 94 1006.4
20260505232617 64 84 0.0 0.0 0.08 0.19 0.19 94 1006.5
20260505232115 64 84 0.0 0.0 0.05 0.16 0.16 94 1006.5
20260505231612 64 84 0.0 0.0 0.04 0.14 0.14 94 1006.9
20260505231113 64 84 0.0 0.0 0.04 0.13 0.13 94 1006.8
20260505230613 64 84 0.0 0.0 0.05 0.13 0.13 94 1006.7
20260505230113 64 84 0.0 0.0 0.05 0.13 0.13 94 1006.3
20260505225609 64 84 0.0 0.0 0.05 0.13 0.13 94 1006.6
20260505225109 64 83 0.0 0.0 0.06 0.13 0.13 94 1006.5
20260505224608 64 83 0.0 1.0 0.06 0.13 0.13 94 1006.6
20260505224108 64 83 0.0 1.0 0.06 0.13 0.13 94 1006.7
20260505223835 64 84 0.0 0.0 0.05 0.12 0.12 93 1006.4
20260505223337 64 84 0.0 0.0 0.04 0.11 0.11 93 1006.9
20260505222603 64 84 0.0 0.0 0.04 0.11 0.11 93 1006.8
20260505222059 64 84 0.0 0.0 0.04 0.11 0.11 93 1006.9
20260505221557 64 84 0.0 0.0 0.03 0.10 0.10 93 1006.7
20260505221317 64 84 0.0 1.0 0.02 0.09 0.10 92 1006.7
20260505220555 65 84 0.0 1.0 0.01 0.08 0.08 92 1007.1
20260505220107 65 84 0.0 0.0 0.01 0.08 0.08 93 1006.6
20260505215554 65 84 0.0 0.0 0.01 0.08 0.08 92 1006.4
20260505215054 65 84 0.0 0.0 0.00 0.07 0.07 93 1006.5
20260505214550 65 84 0.0 0.0 0.00 0.07 0.07 93 1006.4
20260505214308 65 84 0.0 0.0 0.00 0.07 0.07 93 1006.4
20260505213550 65 84 0.0 0.0 0.00 0.07 0.07 93 1006.5
20260505213314 65 84 0.0 0.0 0.00 0.07 0.07 93 1006.7
20260505212550 64 84 0.0 0.0 0.00 0.07 0.07 93 1006.7
20260505211545 64 84 0.0 0.0 0.00 0.07 0.07 93 1006.9
20260505211045 64 84 0.0 0.0 0.00 0.07 0.07 93 1006.9
20260505210808 64 84 0.0 0.0 0.00 0.07 0.07 93 1007.1
20260505210055 64 84 0.0 0.0 0.00 0.07 0.07 93 1007.1
20260505205537 64 84 0.0 0.0 0.00 0.07 0.07 93 1007.2
20260505205035 64 84 0.0 0.0 0.00 0.07 0.07 93 1007.2
20260505204532 64 84 0.0 0.0 0.00 0.07 0.07 93 1007.3
20260505204029 64 84 0.0 0.0 0.00 0.07 0.07 93 1007.4
20260505203530 64 84 0.0 0.0 0.00 0.07 0.07 93 1007.5
20260505203028 64 84 0.0 0.0 0.00 0.07 0.07 92 1007.6
20260505202529 64 84 0.0 0.0 0.00 0.07 0.07 92 1007.6
20260505202026 64 84 0.0 0.0 0.00 0.07 0.07 92 1007.7
20260505201025 64 84 0.0 0.0 0.01 0.07 0.07 93 1007.8
20260505200527 64 84 0.0 0.0 0.02 0.07 0.07 93 1007.8
20260505200023 64 84 0.0 0.0 0.03 0.07 0.07 92 1007.9
20260505195523 64 84 0.0 0.0 0.03 0.07 0.07 92 1008.1
20260505195020 63 84 0.0 0.0 0.05 0.07 0.07 92 1008.1
20260505194519 63 84 0.0 0.0 0.06 0.07 0.07 92 1008.1
20260505194016 63 84 0.0 0.0 0.06 0.07 0.07 92 1008.2
20260505193016 63 84 0.0 0.0 0.07 0.07 0.07 91 1008.3
20260505192516 63 84 0.0 0.0 0.07 0.07 0.07 90 1008.4
20260505192011 63 84 0.0 0.0 0.07 0.07 0.07 90 1008.5
20260505191511 63 84 0.0 0.0 0.06 0.06 0.06 89 1008.5
20260505191010 64 84 0.0 0.0 0.06 0.06 0.06 90 1008.7
20260505190507 64 84 0.0 0.0 0.05 0.05 0.05 88 1008.8
20260505190230 64 84 0.0 0.0 0.04 0.04 0.04 89 1008.8
20260505185503 64 83 0.0 0.0 0.04 0.04 0.04 89 1008.7
20260505185230 65 83 0.0 0.0 0.02 0.02 0.03 86 1008.6
20260505184500 65 83 0.0 0.0 0.01 0.01 0.01 85 1008.9
20260505183959 65 84 0.0 0.0 0.01 0.01 0.01 82 1008.8
20260505183459 65 83 0.0 1.0 0.00 0.00 0.00 81 1008.8
20260505182958 66 83 0.0 1.0 0.00 0.00 0.00 78 1008.9
20260505182454 66 304 0.0 1.0 0.00 0.00 0.00 77 1008.9
20260505181957 66 317 0.0 1.0 0.00 0.00 0.00 78 1009.0
20260505181451 67 317 0.0 3.0 0.00 0.00 0.00 75 1009.0
20260505180949 67 221 0.0 3.0 0.00 0.00 0.00 74 1009.1
20260505180449 67 209 0.0 6.0 0.00 0.00 0.00 74 1008.9
20260505175949 68 210 0.0 6.0 0.00 0.00 0.00 72 1008.9
20260505175448 69 250 0.0 4.0 0.00 0.00 0.00 71 1009.0
20260505174947 69 112 0.0 4.0 0.00 0.00 0.00 69 1008.9
20260505174448 69 208 0.0 4.0 0.00 0.00 0.00 67 1009.0
20260505173947 70 126 1.0 4.0 0.00 0.00 0.00 66 1008.9
20260505173712 71 80 1.0 4.0 0.00 0.00 0.00 67 1008.9
20260505172941 71 322 1.0 4.0 0.00 0.00 0.00 64 1008.9
20260505172440 71 140 0.0 4.0 0.00 0.00 0.00 67 1008.7
20260505171937 71 270 0.0 4.0 0.00 0.00 0.00 67 1008.9
20260505171434 70 156 0.0 1.0 0.00 0.00 0.00 67 1008.9
20260505170931 69 132 0.0 4.0 0.00 0.00 0.00 67 1008.9
20260505165927 69 150 1.0 5.0 0.00 0.00 0.00 67 1009.2
20260505165424 69 231 0.0 5.0 0.00 0.00 0.00 68 1009.0
20260505164924 69 155 0.0 5.0 0.00 0.00 0.00 67 1009.0
20260505164426 68 138 0.0 5.0 0.00 0.00 0.00 67 1009.2
20260505163922 68 107 0.0 4.0 0.00 0.00 0.00 67 1009.3
20260505163642 68 172 0.0 3.0 0.00 0.00 0.00 67 1009.5
20260505162917 69 217 0.0 3.0 0.00 0.00 0.00 67 1009.6
20260505162417 69 165 0.0 3.0 0.00 0.00 0.00 67 1009.6
20260505162138 69 160 0.0 2.0 0.00 0.00 0.00 66 1009.5
20260505161419 69 171 0.0 7.0 0.00 0.00 0.00 66 1009.6
20260505160917 69 221 1.0 7.0 0.00 0.00 0.00 67 1009.6
20260505160429 68 184 0.0 6.0 0.00 0.00 0.00 66 1009.6
20260505152912 67 200 0.0 4.0 0.00 0.00 0.00 67 1009.6
20260505152411 67 166 0.0 4.0 0.00 0.00 0.00 67 1009.6
20260505151916 67 221 0.0 1.0 0.00 0.00 0.00 67 1009.5
20260505151410 67 159 0.0 2.0 0.00 0.00 0.00 68 1009.5
20260505150910 67 174 0.0 2.0 0.00 0.00 0.00 67 1009.5
20260505150411 67 162 0.0 2.0 0.00 0.00 0.00 67 1009.5
20260505150135 67 148 0.0 1.0 0.00 0.00 0.00 67 1009.5
20260505140357 65 211 0.0 1.0 0.00 0.00 0.00 67 1009.5
20260505124839 63 355 0.0 0.0 0.00 0.00 0.00 69 1009.6
20260505124603 62 355 0.0 0.0 0.00 0.00 0.00 71 1009.7
20260505124106 62 355 0.0 0.0 0.00 0.00 0.00 74 1009.7
20260505123334 62 355 0.0 0.0 0.00 0.00 0.00 73 1010.1
20260505123054 62 355 0.0 0.0 0.00 0.01 0.00 74 1010.1
20260505122340 62 355 0.0 0.0 0.00 0.01 0.00 74 1010.1
20260505121828 62 355 0.0 0.0 0.00 0.01 0.00 74 1010.1
20260505121325 62 355 0.0 0.0 0.00 0.01 0.00 74 1010.0
20260505121048 62 355 0.0 0.0 0.00 0.01 0.00 72 1010.0
20260505120545 62 355 0.0 0.0 0.00 0.01 0.00 72 1009.8
20260505115821 62 355 0.0 0.0 0.00 0.01 0.00 72 1009.8
20260505115319 63 355 0.0 0.0 0.00 0.02 0.00 71 1009.7
20260505114817 63 355 0.0 0.0 0.00 0.02 0.00 70 1009.6
20260505114544 63 355 0.0 0.0 0.00 0.03 0.00 69 1009.5
20260505114039 63 355 0.0 0.0 0.00 0.03 0.00 70 1009.5
20260505113325 62 355 0.0 0.0 0.00 0.03 0.00 70 1009.5
20260505112811 62 355 0.0 0.0 0.00 0.03 0.00 69 1009.5
20260505112311 62 355 0.0 0.0 0.00 0.04 0.00 70 1009.5
20260505111811 62 355 0.0 0.0 0.00 0.04 0.00 71 1009.5
20260505111303 63 355 0.0 0.0 0.00 0.05 0.00 69 1009.4
20260505110801 63 355 0.0 0.0 0.00 0.05 0.00 68 1009.3
20260505110305 63 355 0.0 0.0 0.00 0.05 0.00 67 1009.4
20260505101751 64 355 0.0 0.0 0.00 0.05 0.00 66 1010.0
20260505101249 63 9 0.0 0.0 0.00 0.05 0.00 66 1010.0
20260505101025 63 9 0.0 0.0 0.00 0.05 0.00 65 1009.6
20260505100248 63 9 0.0 0.0 0.00 0.05 0.00 64 1009.3
20260505095743 64 9 0.0 1.0 0.00 0.05 0.00 64 1009.1
20260505095242 64 5 0.0 1.0 0.00 0.05 0.00 64 1009.0
20260505094743 63 84 0.0 0.0 0.00 0.05 0.00 64 1008.7
20260505093737 64 84 0.0 0.0 0.00 0.05 0.00 63 1008.4
20260505093238 65 84 0.0 0.0 0.00 0.05 0.00 61 1008.3
20260505092736 65 84 0.0 0.0 0.00 0.05 0.00 61 1008.3
20260505092450 64 84 0.0 0.0 0.00 0.05 0.00 61 1008.3
20260505091733 65 84 0.0 1.0 0.00 0.06 0.00 61 1008.2
20260505091230 65 85 0.0 3.0 0.00 0.06 0.00 61 1008.3
20260505090729 65 42 0.0 3.0 0.00 0.06 0.00 61 1008.0
20260505090228 65 134 0.0 0.0 0.00 0.06 0.00 60 1007.9
20260505085728 65 134 0.0 0.0 0.00 0.06 0.00 60 1007.9
20260505085228 65 143 0.0 0.0 0.00 0.06 0.00 60 1007.9
20260505084951 65 138 0.0 0.0 0.00 0.06 0.00 60 1008.0
20260505084435 65 113 0.0 0.0 0.00 0.06 0.00 59 1008.1
20260505083217 65 107 0.0 1.0 0.00 0.06 0.00 59 1008.0
20260505082713 66 98 0.0 1.0 0.00 0.06 0.00 59 1007.9
20260505082212 66 120 0.0 2.0 0.00 0.06 0.00 59 1007.9
20260505081712 66 120 0.0 2.0 0.00 0.06 0.00 58 1007.8
20260505081207 66 271 0.0 1.0 0.00 0.06 0.00 59 1007.9
20260505080707 66 103 0.0 2.0 0.00 0.06 0.00 58 1007.8
20260505080209 66 99 0.0 2.0 0.00 0.06 0.00 58 1007.8
20260505075705 66 137 0.0 1.0 0.00 0.06 0.00 57 1007.9
20260505075207 67 199 0.0 3.0 0.00 0.06 0.00 57 1007.8
20260505074705 67 200 0.0 7.0 0.00 0.06 0.00 57 1007.8
20260505074421 67 308 0.0 7.0 0.00 0.06 0.00 57 1007.7
20260505073941 67 211 0.0 3.0 0.00 0.06 0.00 57 1007.7
20260505073424 67 160 0.0 2.0 0.00 0.06 0.00 56 1007.7
20260505072702 67 131 0.0 4.0 0.00 0.06 0.00 56 1007.6
20260505072204 67 118 0.0 4.0 0.00 0.06 0.00 56 1007.5
20260505071659 67 185 0.0 4.0 0.00 0.06 0.00 56 1007.6
20260505071158 67 124 0.0 4.0 0.00 0.06 0.00 56 1007.5
20260505070658 67 142 0.0 3.0 0.00 0.06 0.00 56 1007.4
20260505070156 67 92 0.0 2.0 0.00 0.06 0.00 56 1007.5
20260505065656 67 121 0.0 2.0 0.00 0.06 0.00 56 1007.4
20260505065157 67 128 0.0 2.0 0.00 0.06 0.00 56 1007.4
20260505064653 68 109 0.0 2.0 0.00 0.06 0.00 55 1007.4
20260505064155 68 127 0.0 6.0 0.00 0.06 0.00 55 1007.4
20260505063654 68 159 0.0 6.0 0.00 0.06 0.00 55 1007.4
20260505063147 68 138 0.0 3.0 0.00 0.06 0.00 55 1007.4
20260505062914 68 234 0.0 3.0 0.00 0.06 0.00 55 1007.3
20260505062148 68 118 0.0 2.0 0.00 0.06 0.00 55 1007.3
20260505061641 68 82 0.0 2.0 0.00 0.06 0.00 55 1007.3
20260505061140 68 96 0.0 2.0 0.00 0.06 0.00 55 1007.3
20260505060641 68 230 0.0 2.0 0.00 0.06 0.00 55 1007.3
20260505060135 68 152 0.0 2.0 0.00 0.06 0.00 54 1007.3
20260505055633 68 180 0.0 2.0 0.00 0.06 0.00 54 1007.2
20260505055136 68 140 0.0 5.0 0.00 0.06 0.00 54 1007.2
20260505054633 68 161 0.0 5.0 0.00 0.06 0.00 54 1007.2
20260505054403 68 146 0.0 5.0 0.00 0.06 0.00 54 1007.3
20260505053633 68 240 0.0 5.0 0.00 0.06 0.00 54 1007.3
20260505053127 68 140 0.0 4.0 0.00 0.06 0.00 54 1007.3
20260505052625 68 286 0.0 4.0 0.00 0.06 0.00 54 1007.3
20260505052140 68 112 0.0 3.0 0.00 0.06 0.00 54 1007.2
20260505051621 68 152 0.0 3.0 0.00 0.06 0.00 54 1007.2
20260505051123 68 117 0.0 2.0 0.00 0.06 0.00 54 1007.3
20260505050624 69 112 0.0 1.0 0.00 0.06 0.00 54 1007.4
20260505050123 69 124 0.0 1.0 0.00 0.06 0.00 54 1007.5
20260505041608 69 103 0.0 0.0 0.00 0.06 0.00 54 1007.6
20260505041103 69 103 0.0 0.0 0.00 0.06 0.00 53 1007.6
20260505040603 69 103 0.0 0.0 0.00 0.06 0.00 53 1007.6
20260505040117 69 103 0.0 0.0 0.00 0.06 0.00 53 1007.6
20260505035602 69 103 0.0 0.0 0.00 0.06 0.06 53 1007.7
20260505035102 69 103 0.0 0.0 0.00 0.06 0.06 53 1007.7
20260505034603 70 103 0.0 1.0 0.00 0.06 0.06 52 1007.7
20260505034101 70 103 0.0 1.0 0.00 0.06 0.06 52 1007.7
20260505033102 70 103 0.0 1.0 0.00 0.06 0.06 52 1007.6
20260505032553 70 102 0.0 1.0 0.00 0.06 0.06 51 1007.5
20260505032319 70 102 0.0 1.0 0.00 0.06 0.06 52 1007.5
20260505031827 70 245 0.0 0.0 0.00 0.06 0.06 52 1007.5
20260505031047 70 245 0.0 0.0 0.00 0.06 0.06 52 1007.4
20260505030546 70 245 0.0 0.0 0.00 0.06 0.06 52 1007.4
20260505030106 70 245 0.0 1.0 0.00 0.06 0.06 52 1007.3
20260505025545 70 245 0.0 1.0 0.00 0.06 0.06 52 1007.1
20260505025041 70 245 0.0 1.0 0.00 0.06 0.06 52 1007.1
20260505024546 70 219 0.0 2.0 0.00 0.06 0.06 52 1007.0
20260505024037 70 219 0.0 2.0 0.00 0.06 0.06 53 1006.9
20260505023535 70 258 0.0 1.0 0.00 0.06 0.06 53 1006.9
20260505023039 69 258 0.0 1.0 0.00 0.06 0.06 54 1006.8
20260505022535 69 258 0.0 1.0 0.00 0.06 0.06 54 1006.8
20260505022034 70 258 0.0 1.0 0.00 0.06 0.06 52 1006.7
20260505021535 71 258 0.0 1.0 0.00 0.06 0.06 51 1006.5
20260505021300 71 261 0.0 1.0 0.00 0.06 0.06 50 1006.4
20260505020538 72 261 0.0 2.0 0.00 0.06 0.06 49 1006.4
20260505020250 72 261 0.0 2.0 0.00 0.06 0.06 49 1006.3
20260505015526 72 83 0.0 2.0 0.00 0.06 0.06 48 1006.1
20260505015027 72 83 0.0 2.0 0.00 0.06 0.06 48 1005.9
20260505014741 73 202 0.0 1.0 0.00 0.06 0.06 48 1005.8
20260505014019 73 106 0.0 2.0 0.00 0.06 0.06 48 1005.8
20260505013518 73 106 0.0 2.0 0.00 0.06 0.06 48 1005.6
20260505013018 73 153 0.0 1.0 0.00 0.06 0.06 47 1005.6
20260505012520 73 138 0.0 2.0 0.00 0.06 0.06 47 1005.6
20260505012018 73 139 0.0 2.0 0.00 0.06 0.06 47 1005.5
20260505011521 73 130 0.0 2.0 0.00 0.06 0.06 47 1005.6
20260505011235 74 130 0.0 3.0 0.00 0.06 0.06 46 1005.7
20260505010508 74 238 0.0 3.0 0.00 0.06 0.06 46 1005.7
20260505010011 74 111 0.0 1.0 0.00 0.06 0.06 45 1005.6